[[{"header":{"parameterUnit":"m.s-1","parameterCategory":1,"la1":30.2991,"la2":30.254,"lo1":-89.0895,"lo2":-89.0444,"dy":0.0017,"dx":0.0017,"nx":28,"ny":28,"refTime":"2025-07-02T21:00:00:Z","depth":0,"parameterNumber":2,"parameterNumberName":"U-component_of_WINDS"},"data":[0,0,0,0,0,0,0,0,0,0,0,0,0,0,0,0,0,0,0,0,0,0,0,0,0,0,0,0,0,0,0,0,0,0,0,0,0,0,0,0,0,0,0,0,0,0,0,0,0,0,0,0,0,0,0,0,0,0,-0.0125,-0.0125,0,-0.0129,-0.0129,-0.0129,-0.0071,-0.0069,-0.0067,-0.0066,-0.0073,-0.0074,-0.0076,0,0,0,0,0,0,0,0,0,0,0,0,0,-0.007,-0.0071,-0.0125,-0.0125,-0.0125,-0.0129,-0.0129,-0.0129,-0.0071,-0.0069,-0.0067,-0.0065,-0.0072,-0.0074,-0.0076,0,0,0,0,0,0,0,0,0,0,0,0,0,-0.0086,-0.0072,-0.0125,-0.0097,-0.0094,-0.0129,-0.0129,-0.0129,-0.0071,-0.0069,-0.0067,-0.0064,-0.0072,-0.0074,-0.0076,-0.014,0,0,-0.0084,-0.0085,0,0,0,0,0,0,0,0,-0.0085,-0.0088,-0.0101,-0.0099,-0.0096,-0.0097,-0.0112,-0.0133,-0.0072,-0.008,-0.0066,-0.0063,-0.0083,-0.0084,-0.009,-0.014,-0.014,-0.0084,-0.0086,-0.0087,-0.0088,0,0,0,0,0,0,0,-0.0084,-0.0088,-0.0127,-0.0101,-0.0098,-0.0084,-0.0084,-0.0116,-0.0095,-0.0079,-0.0075,-0.0076,-0.0081,-0.0088,-0.009,-0.014,-0.0084,-0.0086,-0.0088,-0.0089,-0.0242,-0.0245,0,0,0,0,0,0,-0.0087,-0.0087,-0.0127,-0.0127,-0.0084,-0.0087,-0.0087,-0.0099,-0.0094,-0.0091,-0.0078,-0.0073,-0.0085,-0.0087,-0.009,-0.0165,-0.0087,-0.0089,-0.0091,-0.024,-0.0243,-0.0246,0,0,0,0,0,0,-0.0086,-0.0091,-0.0127,-0.0106,-0.0109,-0.0091,-0.0105,-0.01,-0.0107,-0.0093,-0.009,-0.0089,-0.0083,-0.0087,-0.0128,-0.0164,-0.009,-0.0093,-0.0237,-0.0241,-0.0244,-0.0315,0,0,0,0,0,0,-0.0084,-0.0091,-0.0114,-0.0107,-0.0111,-0.0164,-0.0107,-0.0102,-0.0111,-0.0105,-0.0103,-0.01,-0.0082,-0.0124,-0.013,-0.0167,-0.0095,-0.0234,-0.0239,-0.0243,-0.0309,-0.0321,-0.033,0,0,0,0,0,-0.0082,-0.0134,-0.0116,-0.0121,-0.014,-0.0166,-0.0168,-0.0145,-0.0114,-0.0139,-0.0129,-0.01,-0.0158,-0.0129,-0.0135,-0.0173,-0.0231,-0.0237,-0.0243,-0.0304,-0.0318,-0.033,0,0,0,0,0,0,-0.0148,-0.0133,-0.0112,-0.0163,-0.0166,-0.0156,-0.0186,-0.0161,-0.0173,-0.0167,-0.0138,-0.0138,-0.0185,-0.0182,-0.0149,-0.0234,-0.019,-0.0197,-0.0234,-0.0247,-0.0258,-0.0259,-0.0097,0,0,0,0,0,-0.0168,-0.019,-0.0176,-0.0222,-0.0225,-0.0205,-0.0216,-0.0197,-0.02,-0.0201,-0.0195,-0.02,-0.0219,-0.0232,-0.0249,-0.0307,-0.0307,-0.0336,-0.0346,-0.0355,-0.0363,-0.0395,-0.0408,-0.0265,-0.0265,-0.0265,0,0,-0.0211,-0.0205,-0.0221,-0.0235,-0.0236,-0.026,-0.0207,-0.0235,-0.0253,-0.0206,-0.0245,-0.024,-0.0243,-0.0293,-0.0315,-0.0292,-0.0402,-0.0363,-0.037,-0.0373,-0.0402,-0.0416,-0.0428,-0.0269,-0.0268,-0.0267,0,0,-0.0302,-0.0299,-0.0338,-0.0338,-0.0339,-0.0325,-0.0334,-0.0327,-0.0323,-0.036,-0.0326,-0.0346,-0.038,-0.0384,-0.039,-0.048,-0.0454,-0.0486,-0.0543,-0.0574,-0.0585,-0.0595,-0.0629,-0.0642,-0.0493,-0.0493,-0.0493,0,-0.0355,-0.039,-0.0361,-0.0391,-0.0399,-0.0355,-0.0395,-0.0397,-0.0404,-0.0411,-0.0385,-0.0426,-0.0424,-0.0475,-0.0497,-0.0503,-0.0514,-0.0488,-0.0586,-0.0595,-0.0604,-0.0637,-0.0649,-0.0497,-0.0497,-0.0496,-0.0496,0,-0.0457,-0.0481,-0.0512,-0.0519,-0.0529,-0.0564,-0.0541,-0.0556,-0.0535,-0.0525,-0.0564,-0.056,-0.0576,-0.0586,-0.0567,-0.0634,-0.062,-0.059,-0.0546,-0.0622,-0.0652,-0.0664,-0.0503,-0.0502,-0.05,-0.0499,0,0,-0.0593,-0.0581,-0.0593,-0.0595,-0.0592,-0.061,-0.0643,-0.0657,-0.0671,-0.0676,-0.0704,-0.0732,-0.0704,-0.0711,-0.0691,-0.0718,-0.0792,-0.0685,-0.0684,-0.0707,-0.0868,-0.0893,-0.0908,-0.0773,-0.0775,-0.0777,-0.0868,0,-0.0683,-0.0738,-0.0712,-0.077,-0.0793,-0.0751,-0.0779,-0.078,-0.077,-0.0789,-0.0777,-0.0799,-0.0759,-0.0763,-0.0787,-0.0778,-0.0824,-0.077,-0.0801,-0.0802,-0.0805,-0.0923,-0.095,-0.1036,-0.088,-0.0882,-0.0883,0,-0.0796,-0.0805,-0.0866,-0.0858,-0.0866,-0.0892,-0.0903,-0.092,-0.0921,-0.0911,-0.0918,-0.0892,-0.0924,-0.0877,-0.0922,-0.0886,-0.0896,-0.0893,-0.0896,-0.0901,-0.085,-0.0934,-0.1063,-0.1078,-0.0901,-0.0899,-0.0898,0,-0.0893,-0.0919,-0.0959,-0.0962,-0.0953,-0.0973,-0.097,-0.0967,-0.0977,-0.0986,-0.0993,-0.1006,-0.1014,-0.1024,-0.1003,-0.097,-0.1051,-0.1002,-0.1046,-0.1047,-0.1069,-0.1068,-0.1205,-0.107,-0.1069,-0.1069,-0.1069,0,-0.0998,-0.1038,-0.1003,-0.1028,-0.1071,-0.1039,-0.1083,-0.1075,-0.1073,-0.1097,-0.1059,-0.1082,-0.1051,-0.107,-0.1053,-0.1094,-0.1097,-0.1092,-0.1087,-0.1097,-0.1098,-0.1106,-0.1101,-0.1073,-0.1072,-0.1071,-0.1071,0,-0.1115,-0.1093,-0.1134,-0.1121,-0.1118,-0.1151,-0.114,-0.1163,-0.1148,-0.1179,-0.1184,-0.1163,-0.1184,-0.1162,-0.1182,-0.1171,-0.1226,-0.1211,-0.1226,-0.1223,-0.127,-0.1267,-0.1419,-0.1438,-0.1288,-0.1289,-0.1291,0,-0.1186,-0.1215,-0.1204,-0.1217,-0.1216,-0.1236,-0.1246,-0.1216,-0.1227,-0.1229,-0.1252,-0.127,-0.1283,-0.1319,-0.1306,-0.1321,-0.1308,-0.136,-0.1311,-0.132,-0.1313,-0.1312,-0.1316,-0.1372,-0.1374,-0.1375,-0.1376,0,-0.1314,-0.1301,-0.1316,-0.1327,-0.134,-0.1347,-0.1352,-0.1364,-0.1332,-0.1347,-0.1368,-0.1378,-0.1397,-0.1417,-0.1427,-0.1425,-0.1397,-0.1391,-0.1403,-0.1415,-0.1424,-0.1422,-0.1257,-0.1389,-0.1388,-0.1387,-0.1386,-0.1386,-0.1412,-0.1437,-0.1433,-0.1451,-0.145,-0.1455,-0.1476,-0.1464,-0.148,-0.1494,-0.1474,-0.1501,-0.1499,-0.151,-0.1511,-0.1532,-0.151,-0.1526,-0.1531,-0.1536,-0.1544,-0.1417,-0.1533,-0.1533,-0.1532,-0.1532,-0.1532,0,-0.1542,-0.1536,-0.1553,-0.156,-0.1574,-0.1542,-0.1546,-0.156,-0.1583,-0.1584,-0.1597,-0.1621,-0.1638,-0.1625,-0.164,-0.1659,-0.1647,-0.1664,-0.1665,-0.1665,-0.1562,-0.1552,-0.1674,-0.1674,-0.1674,-0.1674,-0.1674,-0.1674,-0.1611,-0.1651,-0.1637,-0.1676,-0.167,-0.1696,-0.17,-0.1705,-0.1705,-0.1733,-0.1747,-0.1738,-0.1733,-0.1747,-0.1762,-0.1757,-0.1766,-0.1789,-0.1781,-0.1686,-0.1672,-0.1659,-0.1649,-0.1791,-0.1791,-0.1883,-0.1884,-0.1884]},{"header":{"parameterUnit":"m.s-1","parameterCategory":1,"la1":30.2991,"la2":30.254,"lo1":-89.0895,"lo2":-89.0444,"dy":0.0017,"dx":0.0017,"nx":28,"ny":28,"refTime":"2025-07-02T21:00:00:Z","depth":0,"parameterNumber":3,"parameterNumberName":"V-component_of_WINDS"},"data":[0,0,0,0,0,0,0,0,0,0,0,0,0,0,0,0,0,0,0,0,0,0,0,0,0,0,0,0,0,0,0,0,0,0,0,0,0,0,0,0,0,0,0,0,0,0,0,0,0,0,0,0,0,0,0,0,0,0,-2.6343,-2.6344,0,-2.6421,-2.6421,-2.6422,-2.6398,-2.6396,-2.6395,-2.6393,-2.6471,-2.6474,-2.6478,0,0,0,0,0,0,0,0,0,0,0,0,0,-2.6171,-2.6174,-2.6343,-2.6344,-2.6345,-2.642,-2.6421,-2.6423,-2.6398,-2.6396,-2.6394,-2.6393,-2.6469,-2.6474,-2.6478,0,0,0,0,0,0,0,0,0,0,0,0,0,-2.6247,-2.6175,-2.6342,-2.6342,-2.6342,-2.642,-2.6422,-2.6423,-2.6399,-2.6396,-2.6394,-2.6392,-2.6468,-2.6473,-2.6479,-2.6561,0,0,-2.6495,-2.6497,0,0,0,0,0,0,0,0,-2.6243,-2.6253,-2.6341,-2.6342,-2.6343,-2.6397,-2.6389,-2.6469,-2.6399,-2.6377,-2.6393,-2.639,-2.6448,-2.6455,-2.6475,-2.6565,-2.6568,-2.6496,-2.6499,-2.6501,-2.6503,0,0,0,0,0,0,0,-2.6237,-2.625,-2.6373,-2.6342,-2.6343,-2.6337,-2.6345,-2.6404,-2.6425,-2.6379,-2.6377,-2.6387,-2.6448,-2.647,-2.6476,-2.6569,-2.6495,-2.65,-2.6504,-2.6506,-2.6731,-2.6734,0,0,0,0,0,0,-2.6232,-2.6245,-2.6371,-2.6376,-2.6286,-2.6342,-2.6351,-2.6382,-2.6425,-2.6429,-2.6389,-2.6386,-2.6462,-2.647,-2.6479,-2.6579,-2.6501,-2.6506,-2.6509,-2.6728,-2.6732,-2.6735,0,0,0,0,0,0,-2.6228,-2.6243,-2.6368,-2.631,-2.6326,-2.6348,-2.6383,-2.6385,-2.6407,-2.6432,-2.6436,-2.6408,-2.646,-2.6472,-2.6541,-2.6581,-2.6509,-2.6513,-2.6725,-2.6729,-2.6733,-2.6779,0,0,0,0,0,0,-2.6223,-2.6242,-2.6274,-2.6311,-2.6329,-2.6429,-2.6385,-2.6388,-2.6416,-2.6413,-2.6451,-2.6455,-2.6459,-2.6533,-2.6547,-2.6587,-2.6518,-2.6722,-2.6727,-2.6732,-2.6774,-2.6784,-2.6793,0,0,0,0,0,-2.6217,-2.6283,-2.6276,-2.6291,-2.6369,-2.6432,-2.6442,-2.6446,-2.642,-2.6452,-2.6468,-2.6453,-2.6575,-2.6541,-2.6555,-2.6598,-2.6719,-2.6726,-2.6732,-2.677,-2.6782,-2.6793,0,0,0,0,0,0,-2.6249,-2.6288,-2.628,-2.636,-2.6393,-2.6427,-2.6468,-2.6459,-2.6499,-2.6494,-2.6497,-2.6506,-2.6578,-2.6595,-2.6556,-2.6681,-2.6643,-2.6652,-2.6667,-2.6679,-2.6688,-2.6682,-2.6522,0,0,0,0,0,-2.6265,-2.6313,-2.6344,-2.6412,-2.6429,-2.6446,-2.6473,-2.6474,-2.6508,-2.6521,-2.6543,-2.6575,-2.6621,-2.6651,-2.6694,-2.6776,-2.6784,-2.6813,-2.6823,-2.683,-2.6838,-2.6883,-2.6897,-2.6755,-2.6755,-2.6755,0,0,-2.6299,-2.6327,-2.6357,-2.6419,-2.6445,-2.6494,-2.6458,-2.6511,-2.6547,-2.6529,-2.6596,-2.6614,-2.665,-2.6727,-2.6761,-2.6743,-2.6879,-2.6838,-2.6844,-2.6848,-2.6891,-2.6905,-2.6917,-2.6759,-2.6759,-2.6758,0,0,-2.6387,-2.6412,-2.6472,-2.6498,-2.6538,-2.6549,-2.6563,-2.6599,-2.661,-2.6678,-2.6666,-2.6709,-2.6787,-2.6814,-2.6838,-2.6936,-2.6924,-2.695,-2.7,-2.7044,-2.7055,-2.7065,-2.71,-2.7113,-2.6958,-2.6958,-2.6959,0,-2.6424,-2.6498,-2.6503,-2.6558,-2.6586,-2.6573,-2.6633,-2.6658,-2.6709,-2.6728,-2.6707,-2.6806,-2.683,-2.6913,-2.6937,-2.6957,-2.6973,-2.6946,-2.7053,-2.7063,-2.7072,-2.7106,-2.7119,-2.6961,-2.6961,-2.6961,-2.696,0,-2.6542,-2.6594,-2.6637,-2.6688,-2.6721,-2.6778,-2.6791,-2.6823,-2.6822,-2.6835,-2.6904,-2.6932,-2.6981,-2.7001,-2.6999,-2.7084,-2.7071,-2.7052,-2.7014,-2.7089,-2.712,-2.7133,-2.6966,-2.6965,-2.6964,-2.6963,0,0,-2.6651,-2.6705,-2.6721,-2.6744,-2.6787,-2.6827,-2.6883,-2.6932,-2.696,-2.6996,-2.7044,-2.7111,-2.7093,-2.712,-2.7121,-2.716,-2.7237,-2.7136,-2.7137,-2.7154,-2.7332,-2.7347,-2.7362,-2.7229,-2.7232,-2.7234,-2.7329,0,-2.6742,-2.6843,-2.6849,-2.694,-2.6988,-2.6976,-2.7025,-2.7057,-2.7071,-2.7113,-2.7128,-2.7175,-2.7148,-2.7165,-2.7203,-2.722,-2.7273,-2.7213,-2.7273,-2.7275,-2.7264,-2.7378,-2.7394,-2.7483,-2.7342,-2.7344,-2.7345,0,-2.6862,-2.6903,-2.6999,-2.7036,-2.7056,-2.71,-2.7146,-2.7187,-2.7222,-2.723,-2.7261,-2.7257,-2.7314,-2.7275,-2.7354,-2.7313,-2.7338,-2.735,-2.7354,-2.7359,-2.7315,-2.7387,-2.7511,-2.7524,-2.7365,-2.7363,-2.7362,0,-2.6932,-2.7011,-2.7079,-2.7099,-2.7144,-2.7175,-2.7195,-2.7228,-2.7258,-2.7297,-2.7316,-2.7362,-2.7387,-2.7422,-2.743,-2.7401,-2.751,-2.7471,-2.7517,-2.7517,-2.7541,-2.7539,-2.767,-2.7557,-2.7557,-2.7556,-2.7556,0,-2.7033,-2.7092,-2.7111,-2.7153,-2.7219,-2.7225,-2.729,-2.7308,-2.7338,-2.7382,-2.7375,-2.7416,-2.7425,-2.7468,-2.7475,-2.754,-2.7551,-2.7558,-2.7559,-2.7559,-2.7558,-2.7576,-2.757,-2.756,-2.7559,-2.7558,-2.7558,0,-2.7123,-2.7138,-2.7211,-2.7248,-2.7258,-2.7305,-2.7337,-2.7376,-2.739,-2.7446,-2.746,-2.748,-2.7531,-2.7543,-2.7603,-2.7608,-2.7685,-2.768,-2.7673,-2.7673,-2.7719,-2.7714,-2.7866,-2.7886,-2.7759,-2.776,-2.7761,0,-2.7186,-2.7232,-2.7274,-2.7304,-2.7326,-2.7374,-2.7404,-2.7412,-2.7444,-2.7488,-2.7523,-2.7573,-2.7613,-2.7695,-2.7715,-2.7761,-2.7757,-2.7807,-2.7764,-2.7763,-2.7758,-2.7756,-2.776,-2.7815,-2.7817,-2.7818,-2.7819,0,-2.7298,-2.7303,-2.7348,-2.7395,-2.7432,-2.7469,-2.7505,-2.7529,-2.7542,-2.7578,-2.7631,-2.7663,-2.7725,-2.7775,-2.7821,-2.7841,-2.7832,-2.7832,-2.7845,-2.7846,-2.784,-2.7844,-2.7696,-2.7829,-2.7828,-2.7827,-2.7826,-2.7826,-2.7376,-2.7416,-2.7453,-2.7503,-2.7531,-2.7564,-2.7604,-2.7623,-2.7667,-2.7719,-2.7721,-2.7778,-2.7813,-2.7875,-2.7897,-2.7942,-2.7926,-2.7945,-2.795,-2.7955,-2.7959,-2.7833,-2.795,-2.795,-2.795,-2.7949,-2.7949,0,-2.7487,-2.7511,-2.7556,-2.7607,-2.7647,-2.7636,-2.7675,-2.7708,-2.7759,-2.7793,-2.7833,-2.7894,-2.7943,-2.7967,-2.8015,-2.8046,-2.8043,-2.8058,-2.8056,-2.8061,-2.797,-2.7954,-2.806,-2.806,-2.806,-2.806,-2.806,-2.806,-2.755,-2.7618,-2.7627,-2.7709,-2.7731,-2.7788,-2.7811,-2.7843,-2.7869,-2.7938,-2.7979,-2.7994,-2.8024,-2.8075,-2.8119,-2.8125,-2.8143,-2.816,-2.8164,-2.8078,-2.8067,-2.8056,-2.8041,-2.8164,-2.8164,-2.8251,-2.8252,-2.8252]}]]